Location: Unspecified
(0.0000°N, 0.0000°E)
Time: 23:14:28
(UTC+00:00)

Explorer 7 - Visible Passes

Search period start: 12 December 2018 00:00
Search period end: 22 December 2018 00:00
Orbit: 485 x 681 km, 50.3° (Epoch: 12 December)

Date Brightness Start Highest point End Pass type
(mag) Time Alt. Az. Time Alt. Az. Time Alt. Az.
12 Dec 10.1 05:16:17 10° SSE 05:18:04 13° SE 05:19:53 10° E visible
12 Dec 9.6 18:57:45 10° WNW 19:01:36 25° SW 19:05:18 10° S visible
13 Dec 9.2 05:19:57 10° S 05:23:15 27° SE 05:26:41 10° ENE visible
13 Dec 10.4 19:04:50 10° WSW 19:06:48 12° SW 19:08:43 10° SSW visible
14 Dec 7.2 05:24:37 10° SSW 05:28:25 64° SE 05:32:23 10° NE visible
16 Dec 9.6 03:56:05 10° SSE 03:58:32 16° SE 04:01:01 10° E visible
17 Dec 8.1 04:01:34 19° S 04:03:43 35° SE 04:07:18 10° ENE visible
18 Dec 8.3 04:11:05 24° NE 04:11:05 24° NE 04:12:47 10° NE visible
